| time (UTC) | temp F | wind direction | speed knots | gust knots | rain 1hr in | rain 24hr in | rain mn in | humidity % | barometer mb |
| 20260503002109 | 76 | 112 | 3.5 | 7.8 | 0.00 | 0.10 | 0.00 | 73 | 1021.3 |
| 20260503001827 | 76 | 180 | 2.6 | 6.1 | 0.00 | 0.10 | 0.00 | 75 | 1021.2 |
| 20260503001107 | 76 | 175 | 2.6 | 7.8 | 0.00 | 0.10 | 0.00 | 75 | 1021.3 |
| 20260503000608 | 76 | 123 | 3.5 | 9.6 | 0.00 | 0.10 | 0.00 | 76 | 1021.3 |
| 20260503000106 | 75 | 126 | 3.5 | 9.6 | 0.00 | 0.10 | 0.00 | 76 | 1021.4 |
| 20260502235607 | 75 | 161 | 3.5 | 7.8 | 0.00 | 0.10 | 0.00 | 77 | 1021.5 |
| 20260502235105 | 75 | 120 | 3.5 | 7.8 | 0.00 | 0.10 | 0.00 | 77 | 1021.5 |
| 20260502234605 | 74 | 120 | 3.5 | 8.7 | 0.00 | 0.10 | 0.00 | 78 | 1021.5 |
| 20260502234103 | 74 | 185 | 2.6 | 8.7 | 0.00 | 0.10 | 0.00 | 79 | 1021.6 |
| 20260502233601 | 74 | 131 | 2.6 | 7.8 | 0.00 | 0.10 | 0.00 | 79 | 1021.5 |
| 20260502233104 | 73 | 122 | 2.6 | 7.0 | 0.00 | 0.10 | 0.00 | 80 | 1021.6 |
| 20260502232539 | 73 | 208 | 2.6 | 6.1 | 0.00 | 0.10 | 0.00 | 82 | 1021.6 |
| 20260502232039 | 72 | 246 | 1.7 | 4.3 | 0.00 | 0.10 | 0.00 | 83 | 1021.6 |
| 20260502231527 | 71 | 175 | 1.7 | 4.3 | 0.00 | 0.10 | 0.00 | 83 | 1021.7 |
| 20260502231246 | 71 | 209 | 2.6 | 5.2 | 0.00 | 0.10 | 0.00 | 84 | 1021.6 |
| 20260502230528 | 70 | 261 | 1.7 | 5.2 | 0.00 | 0.10 | 0.00 | 84 | 1021.7 |
| 20260502230027 | 70 | 185 | 1.7 | 4.3 | 0.00 | 0.10 | 0.00 | 85 | 1021.6 |
| 20260502225523 | 69 | 235 | 1.7 | 4.3 | 0.00 | 0.10 | 0.00 | 86 | 1021.6 |
| 20260502225024 | 69 | 231 | 0.9 | 3.5 | 0.00 | 0.10 | 0.00 | 87 | 1021.6 |
| 20260502224745 | 69 | 220 | 0.9 | 3.5 | 0.00 | 0.10 | 0.00 | 88 | 1021.6 |
| 20260502224023 | 68 | 239 | 1.7 | 3.5 | 0.00 | 0.10 | 0.00 | 88 | 1021.6 |
| 20260502223521 | 68 | 192 | 1.7 | 3.5 | 0.00 | 0.10 | 0.00 | 88 | 1021.7 |
| 20260502223019 | 67 | 185 | 1.7 | 3.5 | 0.00 | 0.10 | 0.00 | 89 | 1021.5 |
| 20260502222517 | 67 | 240 | 1.7 | 4.3 | 0.00 | 0.10 | 0.00 | 90 | 1021.4 |
| 20260502222250 | 66 | 241 | 1.7 | 4.3 | 0.00 | 0.10 | 0.00 | 90 | 1021.3 |
| 20260502221516 | 66 | 212 | 1.7 | 4.3 | 0.00 | 0.10 | 0.00 | 91 | 1021.3 |
| 20260502221013 | 65 | 244 | 0.9 | 3.5 | 0.00 | 0.10 | 0.00 | 92 | 1021.3 |
| 20260502220515 | 65 | 196 | 0.9 | 2.6 | 0.00 | 0.10 | 0.00 | 92 | 1021.3 |
| 20260502220205 | 65 | 196 | 0.9 | 3.5 | 0.00 | 0.10 | 0.00 | 92 | 1021.2 |
| 20260502215639 | 64 | 196 | 0.9 | 3.5 | 0.00 | 0.10 | 0.00 | 92 | 1021.1 |
| 20260502214853 | 64 | 196 | 0.9 | 2.6 | 0.00 | 0.10 | 0.00 | 93 | 1021.1 |
| 20260502214324 | 63 | 196 | 1.7 | 5.2 | 0.00 | 0.10 | 0.00 | 93 | 1021.0 |
| 20260502213756 | 63 | 196 | 1.7 | 5.2 | 0.00 | 0.10 | 0.00 | 93 | 1020.9 |
| 20260502213231 | 62 | 251 | 1.7 | 5.2 | 0.00 | 0.10 | 0.00 | 93 | 1020.9 |
| 20260502212707 | 62 | 208 | 1.7 | 5.2 | 0.00 | 0.10 | 0.00 | 93 | 1021.0 |
| 20260502212140 | 62 | 189 | 1.7 | 5.2 | 0.00 | 0.10 | 0.00 | 93 | 1020.9 |
| 20260502211611 | 61 | 202 | 1.7 | 5.2 | 0.00 | 0.10 | 0.00 | 92 | 1020.9 |
| 20260502211045 | 61 | 219 | 0.9 | 3.5 | 0.00 | 0.10 | 0.00 | 92 | 1020.9 |
| 20260502210519 | 61 | 212 | 0.9 | 3.5 | 0.00 | 0.10 | 0.00 | 92 | 1020.8 |
| 20260502205958 | 61 | 212 | 0.0 | 1.7 | 0.00 | 0.10 | 0.00 | 92 | 1020.7 |
| 20260502205433 | 61 | 212 | 0.9 | 1.7 | 0.00 | 0.10 | 0.00 | 92 | 1020.7 |
| 20260502204907 | 61 | 212 | 0.9 | 2.6 | 0.00 | 0.10 | 0.00 | 92 | 1020.6 |
| 20260502204341 | 61 | 212 | 0.9 | 2.6 | 0.00 | 0.10 | 0.00 | 92 | 1020.6 |
| 20260502203813 | 61 | 212 | 1.7 | 3.5 | 0.00 | 0.10 | 0.00 | 92 | 1020.6 |
| 20260502203245 | 61 | 212 | 0.9 | 3.5 | 0.00 | 0.11 | 0.00 | 92 | 1020.6 |
| 20260502202938 | 61 | 212 | 0.9 | 1.7 | 0.00 | 0.12 | 0.00 | 92 | 1020.6 |
| 20260502202151 | 61 | 212 | 0.9 | 2.6 | 0.00 | 0.13 | 0.00 | 92 | 1020.4 |
| 20260502201838 | 61 | 212 | 0.9 | 2.6 | 0.00 | 0.13 | 0.00 | 92 | 1020.5 |
| 20260502201057 | 61 | 212 | 0.9 | 2.6 | 0.00 | 0.13 | 0.00 | 92 | 1020.4 |
| 20260502200749 | 61 | 212 | 0.9 | 2.6 | 0.00 | 0.13 | 0.00 | 91 | 1020.3 |
| 20260502200001 | 61 | 212 | 0.9 | 3.5 | 0.00 | 0.13 | 0.00 | 91 | 1020.3 |
| 20260502195434 | 61 | 212 | 0.9 | 3.5 | 0.00 | 0.13 | 0.00 | 91 | 1020.2 |
| 20260502194906 | 61 | 212 | 0.9 | 2.6 | 0.00 | 0.13 | 0.00 | 91 | 1020.2 |
| 20260502194338 | 61 | 212 | 0.0 | 1.7 | 0.00 | 0.13 | 0.00 | 91 | 1020.2 |
| 20260502194103 | 61 | 212 | 0.9 | 2.6 | 0.00 | 0.13 | 0.00 | 91 | 1020.1 |
| 20260502193331 | 61 | 212 | 1.7 | 2.6 | 0.00 | 0.13 | 0.00 | 91 | 1020.1 |
| 20260502192843 | 61 | 212 | 1.7 | 3.5 | 0.00 | 0.13 | 0.00 | 91 | 1020.2 |
| 20260502192330 | 61 | 212 | 0.9 | 3.5 | 0.00 | 0.13 | 0.00 | 91 | 1020.2 |
| 20260502191831 | 61 | 202 | 0.9 | 3.5 | 0.00 | 0.13 | 0.00 | 91 | 1020.2 |
| 20260502191342 | 61 | 202 | 0.0 | 2.6 | 0.00 | 0.14 | 0.00 | 91 | 1020.1 |
| 20260502190827 | 61 | 159 | 0.0 | 1.7 | 0.00 | 0.14 | 0.00 | 90 | 1019.9 |
| 20260502190327 | 61 | 159 | 0.9 | 1.7 | 0.00 | 0.14 | 0.00 | 90 | 1019.9 |
| 20260502190056 | 62 | 159 | 0.9 | 3.5 | 0.00 | 0.14 | 0.00 | 90 | 1019.9 |
| 20260502185321 | 62 | 159 | 0.9 | 3.5 | 0.00 | 0.14 | 0.00 | 90 | 1019.9 |
| 20260502184820 | 62 | 159 | 0.9 | 3.5 | 0.00 | 0.14 | 0.00 | 90 | 1019.9 |
| 20260502184319 | 62 | 159 | 0.9 | 3.5 | 0.00 | 0.14 | 0.00 | 90 | 1019.9 |
| 20260502183819 | 62 | 159 | 0.9 | 2.6 | 0.00 | 0.14 | 0.00 | 90 | 1019.9 |
| 20260502183317 | 62 | 159 | 0.9 | 2.6 | 0.00 | 0.14 | 0.00 | 90 | 1020.0 |
| 20260502182818 | 62 | 159 | 0.9 | 2.6 | 0.00 | 0.14 | 0.00 | 90 | 1019.9 |
| 20260502182249 | 62 | 159 | 0.9 | 2.6 | 0.00 | 0.14 | 0.00 | 90 | 1020.0 |
| 20260502182220 | 62 | 159 | 0.9 | 2.6 | 0.00 | 0.14 | 0.00 | 90 | 1020.0 |
| 20260502181452 | 62 | 159 | 0.0 | 2.6 | 0.00 | 0.14 | 0.00 | 90 | 1019.9 |
| 20260502180730 | 62 | 159 | 0.0 | 2.6 | 0.00 | 0.14 | 0.00 | 90 | 1020.0 |
| 20260502180231 | 62 | 159 | 0.9 | 2.6 | 0.00 | 0.14 | 0.00 | 90 | 1019.8 |
| 20260502170122 | 62 | 159 | 0.9 | 1.7 | 0.00 | 0.14 | 0.00 | 91 | 1020.2 |
| 20260502164121 | 62 | 128 | 0.0 | 1.7 | 0.00 | 0.14 | 0.00 | 91 | 1020.3 |
| 20260502163622 | 62 | 128 | 0.0 | 0.0 | 0.00 | 0.17 | 0.00 | 91 | 1020.3 |
| 20260502163344 | 62 | 128 | 0.0 | 0.0 | 0.00 | 0.20 | 0.00 | 91 | 1020.3 |
| 20260502162619 | 62 | 128 | 0.0 | 1.7 | 0.00 | 0.31 | 0.00 | 91 | 1020.2 |
| 20260502162121 | 62 | 128 | 0.9 | 2.6 | 0.00 | 0.33 | 0.00 | 91 | 1020.3 |
| 20260502161613 | 62 | 128 | 0.9 | 2.6 | 0.00 | 0.35 | 0.00 | 91 | 1020.3 |
| 20260502161111 | 62 | 128 | 0.9 | 1.7 | 0.00 | 0.35 | 0.00 | 91 | 1020.3 |
| 20260502160609 | 62 | 128 | 0.9 | 2.6 | 0.00 | 0.35 | 0.00 | 90 | 1020.4 |
| 20260502160111 | 62 | 128 | 0.0 | 2.6 | 0.00 | 0.35 | 0.00 | 90 | 1020.5 |
| 20260502152009 | 63 | 128 | 0.0 | 0.0 | 0.00 | 0.35 | 0.00 | 89 | 1020.9 |
| 20260502151507 | 63 | 128 | 0.0 | 0.0 | 0.00 | 0.35 | 0.00 | 89 | 1021.0 |
| 20260502151007 | 63 | 128 | 0.0 | 0.0 | 0.00 | 0.35 | 0.00 | 88 | 1021.0 |
| 20260502150502 | 64 | 128 | 0.0 | 0.0 | 0.00 | 0.35 | 0.00 | 88 | 1020.9 |
| 20260502130324 | 68 | 128 | 0.0 | 1.7 | 0.00 | 0.38 | 0.35 | 83 | 1021.2 |
| 20260502123752 | 68 | 128 | 1.7 | 4.3 | 0.00 | 0.38 | 0.35 | 83 | 1021.3 |
| 20260502123252 | 68 | 128 | 1.7 | 4.3 | 0.00 | 0.38 | 0.35 | 83 | 1021.2 |
| 20260502122753 | 68 | 128 | 1.7 | 4.3 | 0.00 | 0.38 | 0.35 | 84 | 1021.4 |
| 20260502122252 | 69 | 128 | 1.7 | 4.3 | 0.00 | 0.38 | 0.35 | 84 | 1021.5 |
| 20260502121752 | 69 | 130 | 2.6 | 5.2 | 0.00 | 0.38 | 0.35 | 84 | 1021.4 |
| 20260502121251 | 69 | 125 | 1.7 | 5.2 | 0.00 | 0.38 | 0.35 | 84 | 1021.5 |
| 20260502120752 | 69 | 101 | 1.7 | 3.5 | 0.00 | 0.38 | 0.35 | 84 | 1021.6 |
| 20260502120242 | 69 | 101 | 2.6 | 6.1 | 0.00 | 0.38 | 0.35 | 84 | 1021.5 |
| 20260502115743 | 69 | 116 | 2.6 | 6.1 | 0.00 | 0.38 | 0.35 | 85 | 1021.4 |
| 20260502115242 | 69 | 109 | 1.7 | 6.1 | 0.00 | 0.39 | 0.35 | 85 | 1021.4 |
| 20260502114740 | 69 | 117 | 2.6 | 6.1 | 0.00 | 0.39 | 0.35 | 85 | 1021.4 |
| 20260502114243 | 69 | 121 | 2.6 | 6.1 | 0.00 | 0.39 | 0.35 | 85 | 1021.4 |
| 20260502113714 | 69 | 120 | 2.6 | 4.3 | 0.00 | 0.39 | 0.35 | 85 | 1021.5 |
| 20260502113413 | 69 | 120 | 2.6 | 6.1 | 0.00 | 0.39 | 0.35 | 86 | 1021.4 |
| 20260502112921 | 69 | 120 | 2.6 | 6.1 | 0.00 | 0.46 | 0.35 | 86 | 1021.5 |
| 20260502112141 | 69 | 126 | 2.6 | 7.8 | 0.00 | 0.46 | 0.35 | 86 | 1021.6 |
| 20260502111639 | 69 | 106 | 2.6 | 7.8 | 0.00 | 0.46 | 0.35 | 87 | 1021.6 |
| 20260502111139 | 69 | 118 | 1.7 | 4.3 | 0.00 | 0.47 | 0.35 | 87 | 1021.6 |
| 20260502110640 | 69 | 118 | 1.7 | 4.3 | 0.00 | 0.48 | 0.35 | 87 | 1021.5 |
| 20260502110137 | 69 | 118 | 2.6 | 4.3 | 0.00 | 0.48 | 0.35 | 88 | 1021.5 |
| 20260502105855 | 69 | 118 | 2.6 | 5.2 | 0.00 | 0.48 | 0.35 | 88 | 1021.5 |
| 20260502105356 | 69 | 120 | 2.6 | 5.2 | 0.00 | 0.48 | 0.35 | 88 | 1021.5 |
| 20260502104632 | 69 | 131 | 1.7 | 6.1 | 0.00 | 0.48 | 0.35 | 89 | 1021.6 |
| 20260502104351 | 68 | 124 | 2.6 | 6.1 | 0.00 | 0.48 | 0.35 | 89 | 1021.5 |
| 20260502103628 | 68 | 121 | 2.6 | 4.3 | 0.00 | 0.48 | 0.35 | 89 | 1021.4 |
| 20260502103131 | 68 | 134 | 2.6 | 6.1 | 0.00 | 0.48 | 0.35 | 90 | 1021.4 |
| 20260502102623 | 68 | 116 | 1.7 | 6.1 | 0.00 | 0.49 | 0.35 | 90 | 1021.4 |
| 20260502102121 | 68 | 127 | 0.9 | 2.6 | 0.00 | 0.50 | 0.35 | 89 | 1021.4 |
| 20260502102101 | 68 | 134 | 0.0 | 2.6 | 0.00 | 0.54 | 0.35 | 89 | 1021.4 |
| 20260502101121 | 68 | 134 | 0.0 | 2.6 | 0.00 | 0.62 | 0.35 | 89 | 1021.4 |
| 20260502100613 | 68 | 134 | 0.9 | 2.6 | 0.00 | 0.68 | 0.35 | 89 | 1021.3 |
| 20260502100110 | 68 | 133 | 0.9 | 2.6 | 0.00 | 0.70 | 0.35 | 89 | 1021.3 |
| 20260502091050 | 69 | 122 | 1.7 | 2.6 | 0.00 | 0.98 | 0.35 | 88 | 1020.5 |
| 20260502090549 | 69 | 122 | 1.7 | 2.6 | 0.00 | 0.98 | 0.35 | 88 | 1020.5 |
| 20260502071248 | 70 | 116 | 1.7 | 4.3 | 0.01 | 0.99 | 0.35 | 88 | 1019.9 |
| 20260502070937 | 71 | 122 | 1.7 | 6.1 | 0.01 | 0.99 | 0.35 | 88 | 1019.8 |
| 20260502070154 | 71 | 122 | 1.7 | 6.1 | 0.01 | 0.99 | 0.35 | 88 | 1019.9 |
| 20260502065645 | 71 | 112 | 1.7 | 6.1 | 0.01 | 0.99 | 0.35 | 88 | 1019.8 |
| 20260502065146 | 71 | 114 | 1.7 | 7.0 | 0.01 | 0.99 | 0.35 | 89 | 1019.7 |
| 20260502064608 | 71 | 120 | 1.7 | 7.0 | 0.01 | 0.99 | 0.35 | 89 | 1019.7 |
| 20260502064041 | 71 | 133 | 1.7 | 4.3 | 0.01 | 0.99 | 0.35 | 89 | 1019.6 |
| 20260502063517 | 71 | 122 | 1.7 | 4.3 | 0.01 | 0.99 | 0.35 | 89 | 1019.5 |
| 20260502062948 | 71 | 126 | 1.7 | 7.0 | 0.01 | 0.99 | 0.35 | 90 | 1019.6 |
| 20260502062650 | 71 | 122 | 1.7 | 7.0 | 0.00 | 0.98 | 0.35 | 90 | 1019.6 |
| 20260502061907 | 71 | 123 | 1.7 | 6.1 | 0.00 | 0.98 | 0.35 | 90 | 1019.6 |
| 20260502061634 | 71 | 123 | 1.7 | 6.1 | 0.00 | 0.98 | 0.35 | 90 | 1019.6 |
| 20260502060842 | 71 | 113 | 0.9 | 5.2 | 0.00 | 0.98 | 0.35 | 90 | 1019.5 |
| 20260502060323 | 71 | 112 | 0.9 | 3.5 | 0.00 | 0.98 | 0.35 | 90 | 1019.5 |
| 20260502055824 | 72 | 112 | 1.7 | 4.3 | 0.00 | 0.98 | 0.35 | 90 | 1019.5 |
| 20260502055257 | 72 | 114 | 1.7 | 4.3 | 0.00 | 0.98 | 0.35 | 90 | 1019.5 |
| 20260502054952 | 72 | 122 | 0.9 | 5.2 | 0.00 | 0.98 | 0.35 | 90 | 1019.7 |
| 20260502054202 | 72 | 121 | 1.7 | 5.2 | 0.01 | 0.98 | 0.35 | 90 | 1019.6 |
| 20260502053854 | 72 | 124 | 1.7 | 7.8 | 0.02 | 0.98 | 0.35 | 90 | 1019.5 |
| 20260502053106 | 72 | 122 | 1.7 | 7.8 | 0.02 | 0.98 | 0.35 | 91 | 1019.5 |
| 20260502052541 | 72 | 175 | 1.7 | 6.1 | 0.02 | 0.98 | 0.35 | 91 | 1019.5 |
| 20260502052015 | 72 | 185 | 1.7 | 6.1 | 0.08 | 0.98 | 0.35 | 91 | 1019.5 |
| 20260502051445 | 72 | 162 | 1.7 | 3.5 | 0.09 | 0.98 | 0.35 | 90 | 1019.5 |
| 20260502051136 | 72 | 168 | 1.7 | 3.5 | 0.09 | 0.98 | 0.35 | 90 | 1019.7 |
| 20260502050358 | 72 | 157 | 1.7 | 4.3 | 0.09 | 0.98 | 0.35 | 90 | 1019.7 |
| 20260502045859 | 71 | 185 | 1.7 | 4.3 | 0.09 | 0.98 | 0.35 | 89 | 1019.8 |
| 20260502045343 | 71 | 131 | 1.7 | 3.5 | 0.09 | 0.98 | 0.35 | 89 | 1019.8 |
| 20260502045103 | 71 | 122 | 1.7 | 6.1 | 0.09 | 0.98 | 0.35 | 88 | 1019.8 |
| 20260502044340 | 72 | 128 | 1.7 | 6.1 | 0.09 | 0.98 | 0.35 | 87 | 1019.7 |
| 20260502044103 | 72 | 158 | 1.7 | 5.2 | 0.08 | 0.97 | 0.33 | 87 | 1019.7 |
| 20260502043613 | 72 | 175 | 0.9 | 11.3 | 0.08 | 0.97 | 0.33 | 87 | 1019.6 |
| 20260502042835 | 73 | 114 | 1.7 | 11.3 | 0.08 | 0.97 | 0.33 | 87 | 1019.7 |
| 20260502042332 | 73 | 114 | 3.5 | 11.3 | 0.07 | 0.96 | 0.32 | 86 | 1019.9 |
| 20260502041830 | 73 | 133 | 2.6 | 11.3 | 0.01 | 0.90 | 0.26 | 85 | 1019.9 |
| 20260502041328 | 74 | 164 | 1.7 | 6.1 | 0.01 | 0.90 | 0.26 | 85 | 1019.9 |
| 20260502040828 | 74 | 200 | 1.7 | 4.3 | 0.01 | 0.90 | 0.26 | 85 | 1019.9 |
| 20260502040549 | 74 | 180 | 3.5 | 7.8 | 0.01 | 0.90 | 0.26 | 84 | 1019.8 |
| 20260502035827 | 74 | 135 | 4.3 | 7.8 | 0.01 | 0.90 | 0.26 | 82 | 1019.9 |
| 20260502035553 | 75 | 149 | 3.5 | 7.8 | 0.00 | 0.89 | 0.25 | 80 | 1020.0 |
| 20260502034824 | 75 | 162 | 2.6 | 7.0 | 0.00 | 0.89 | 0.25 | 80 | 1019.8 |
| 20260502034324 | 75 | 136 | 3.5 | 6.1 | 0.00 | 0.89 | 0.25 | 81 | 1019.8 |
| 20260502034054 | 75 | 136 | 4.3 | 11.3 | 0.00 | 0.89 | 0.25 | 80 | 1019.8 |
| 20260502033325 | 76 | 175 | 5.2 | 11.3 | 0.00 | 0.89 | 0.25 | 78 | 1019.9 |
| 20260502032826 | 76 | 111 | 4.3 | 11.3 | 0.00 | 0.89 | 0.25 | 77 | 1019.8 |
| 20260502032305 | 78 | 123 | 4.3 | 11.3 | 0.00 | 0.89 | 0.25 | 76 | 1019.8 |
| 20260502031806 | 78 | 147 | 3.5 | 11.3 | 0.00 | 0.89 | 0.25 | 76 | 1019.8 |
| 20260502031239 | 78 | 108 | 4.3 | 11.3 | 0.00 | 0.89 | 0.25 | 74 | 1019.9 |
| 20260502030740 | 77 | 111 | 3.5 | 8.7 | 0.00 | 0.89 | 0.25 | 75 | 1019.9 |
| 20260502030238 | 77 | 120 | 3.5 | 7.8 | 0.00 | 0.89 | 0.25 | 75 | 1020.0 |
| 20260502025737 | 77 | 122 | 3.5 | 8.7 | 0.00 | 0.89 | 0.25 | 76 | 1020.1 |
| 20260502025238 | 77 | 113 | 4.3 | 11.3 | 0.00 | 0.89 | 0.25 | 76 | 1020.2 |
| 20260502024738 | 77 | 163 | 4.3 | 11.3 | 0.00 | 0.89 | 0.25 | 76 | 1020.1 |
| 20260502024236 | 77 | 142 | 3.5 | 8.7 | 0.00 | 0.89 | 0.25 | 76 | 1020.3 |
| 20260502023736 | 77 | 126 | 4.3 | 8.7 | 0.00 | 0.89 | 0.25 | 76 | 1020.4 |
| 20260502023236 | 77 | 122 | 5.2 | 9.6 | 0.00 | 0.89 | 0.25 | 75 | 1020.4 |
| 20260502022736 | 77 | 116 | 5.2 | 9.6 | 0.00 | 0.89 | 0.25 | 74 | 1020.4 |
| 20260502022234 | 78 | 114 | 4.3 | 8.7 | 0.00 | 0.89 | 0.25 | 73 | 1020.4 |
| 20260502021736 | 78 | 129 | 3.5 | 9.6 | 0.00 | 0.89 | 0.25 | 73 | 1020.5 |
| 20260502021208 | 78 | 139 | 3.5 | 9.6 | 0.00 | 0.89 | 0.25 | 74 | 1020.6 |
| 20260502020707 | 78 | 129 | 3.5 | 8.7 | 0.00 | 0.89 | 0.25 | 76 | 1020.8 |
| 20260502020206 | 76 | 128 | 3.5 | 10.4 | 0.00 | 0.89 | 0.25 | 77 | 1020.9 |
| 20260502015703 | 75 | 114 | 3.5 | 10.4 | 0.00 | 0.89 | 0.25 | 78 | 1021.0 |
| 20260502015204 | 74 | 128 | 5.2 | 12.2 | 0.00 | 0.89 | 0.25 | 78 | 1021.0 |
| 20260502014702 | 74 | 113 | 7.0 | 18.2 | 0.00 | 0.89 | 0.25 | 78 | 1021.0 |
| 20260502014201 | 75 | 117 | 7.0 | 18.2 | 0.00 | 0.89 | 0.25 | 77 | 1021.2 |
| 20260502013703 | 76 | 112 | 7.0 | 13.0 | 0.00 | 0.89 | 0.25 | 77 | 1021.0 |
| 20260502013200 | 75 | 124 | 6.1 | 13.0 | 0.00 | 0.89 | 0.25 | 78 | 1021.1 |
| 20260502012918 | 76 | 131 | 7.0 | 14.8 | 0.00 | 0.89 | 0.25 | 78 | 1021.3 |
| 20260502012157 | 77 | 101 | 7.0 | 14.8 | 0.00 | 0.89 | 0.25 | 75 | 1021.4 |
| 20260502011658 | 77 | 147 | 6.1 | 12.2 | 0.00 | 0.89 | 0.25 | 71 | 1021.4 |
| 20260502011157 | 78 | 125 | 5.2 | 12.2 | 0.00 | 0.89 | 0.25 | 70 | 1021.6 |
| 20260502010657 | 78 | 128 | 5.2 | 14.8 | 0.00 | 0.89 | 0.25 | 70 | 1021.6 |
| 20260502010159 | 79 | 93 | 6.1 | 14.8 | 0.00 | 0.89 | 0.25 | 71 | 1021.6 |
| 20260502005639 | 78 | 95 | 5.2 | 17.4 | 0.00 | 0.89 | 0.25 | 71 | 1021.7 |
| 20260502005140 | 78 | 114 | 5.2 | 17.4 | 0.00 | 0.89 | 0.25 | 71 | 1021.7 |
| 20260502004612 | 78 | 122 | 6.1 | 17.4 | 0.00 | 0.89 | 0.25 | 71 | 1021.8 |
| 20260502004111 | 78 | 121 | 6.1 | 17.4 | 0.00 | 0.89 | 0.25 | 70 | 1021.8 |
| 20260502003836 | 78 | 108 | 7.0 | 15.6 | 0.00 | 0.89 | 0.25 | 72 | 1021.7 |
| 20260502003112 | 78 | 124 | 7.8 | 15.6 | 0.00 | 0.89 | 0.25 | 73 | 1021.8 |
| 20260502002613 | 78 | 120 | 6.1 | 14.8 | 0.00 | 0.89 | 0.25 | 73 | 1021.8 |